Flag for Netherlands Weather past 2 weeks in Leiden, Netherlands

Now
39 °F

Drizzle. Broken clouds.


Feels Like: 33 °F
Forecast: 38 / 43 °F
Wind: 9 mph from West

Location: Rotterdam Zestienhoven Airport

Current Time: Feb 1, 2015 at 9:09:32 AM

Latest Report: Feb 1, 2015 at 8:25 AM


Visibility: N/A

Pressure: 29.12 "Hg

Humidity: 81%

Dew point: 34 °F

Location of LeidenLocation

Historic Weather in Leiden — Graph

°F

Leiden temperature yesterday

Maximum temperature yesterday: 41 °F (at 1:25 PM)
Minimum temperature yesterday: 32 °F (at 5:55 AM)
Average temperature yesterday: 36 °F

Past Weeks' High & Low Weather Summary

 TemperatureHumidityPressure
High48 °F (Jan 26, 12:55 PM)100% (Jan 18, 6:25 PM)30.42 "Hg (Jan 18, 6:25 PM)
Low23 °F (Jan 23, 7:25 AM)61% (Jan 17, 3:25 PM)28.71 "Hg (Jan 29, 8:25 PM)
Average37 °F87%29.79 "Hg
* Reported Jan 17 7:25 AM — Feb 1 7:55 AM, Leiden, Weather by CustomWeather, © 2014

Note: Actual official high and low records may vary slightly from our data, if they occured in-between our weather recording intervals... More about our weather records

Advertising

Leiden weather history for previous 24 hours

 ConditionsComfort  
Time TempWeatherWind HumidityBarometerVisibility
7:55 AM
Feb 1
39 °FMostly cloudy.14 mph81%29.12 "HgN/A
7:25 AM39 °FMostly cloudy.14 mph81%29.12 "HgN/A
6:55 AM39 °FPartly cloudy.15 mph87%29.12 "HgN/A
6:25 AM39 °FLight rain. Partly cloudy.16 mph87%29.12 "HgN/A
5:55 AM39 °FPassing clouds.15 mph93%29.12 "HgN/A
5:25 AM37 °FLight rain. Partly cloudy.7 mph93%29.12 "HgN/A
4:55 AM37 °FPartly cloudy.7 mph93%29.09 "HgN/A
4:25 AM36 °FOvercast.3 mph93%29.09 "HgN/A
3:55 AM36 °FSprinkles. Partly cloudy.9 mph100%29.09 "Hg3 mi
3:25 AM36 °FLight rain. Mostly cloudy.6 mph93%29.09 "HgN/A
2:55 AM36 °FLight rain. Partly cloudy.6 mph93%29.09 "Hg6 mi
2:25 AM34 °FClear.6 mph100%29.09 "HgN/A
1:55 AM36 °FMostly cloudy.6 mph93%29.09 "HgN/A
1:25 AM34 °FLight rain. Mostly cloudy.3 mph93%29.09 "HgN/A
12:55 AM34 °FLight rain. Mostly cloudy.3 mph100%29.09 "Hg4 mi
12:25 AM34 °FPartly cloudy.6 mph100%29.09 "HgN/A
11:55 PM
Jan 31
34 °FClear.6 mph93%29.09 "HgN/A
11:25 PM32 °FPassing clouds.5 mph100%29.09 "Hg4 mi
10:55 PM34 °FPassing clouds.3 mph93%29.09 "HgN/A
10:25 PM34 °FPassing clouds.6 mph100%29.09 "Hg6 mi
9:55 PM32 °FLight snow. Overcast.5 mph100%29.09 "Hg6 mi
9:25 PM32 °FClear.6 mph93%29.09 "HgN/A
8:55 PM32 °FChilly.5 mph100%29.09 "HgN/A
8:25 PM34 °FPassing clouds.5 mph93%29.09 "HgN/A
7:55 PM34 °FPassing clouds.3 mph93%29.06 "Hg6 mi
7:25 PM34 °FPassing clouds.1 mph93%29.06 "Hg4 mi
6:55 PM36 °FPassing clouds.3 mph93%29.06 "HgN/A
6:25 PM36 °FPassing clouds.1 mph93%29.06 "HgN/A
5:55 PM37 °FLight rain. Partly cloudy.7 mph93%29.03 "Hg6 mi
5:25 PM37 °FPartly sunny.7 mph87%29.03 "HgN/A
4:55 PM37 °FPassing clouds.7 mph87%29.00 "HgN/A
4:25 PM37 °FPassing clouds.9 mph87%29.00 "HgN/A
3:55 PM39 °FPartly sunny.7 mph81%29.00 "HgN/A
3:25 PM39 °FPartly sunny.8 mph87%29.00 "HgN/A
2:55 PM37 °FSprinkles. Broken clouds.8 mph87%28.97 "Hg5 mi
2:25 PM39 °FBroken clouds.12 mph81%28.97 "HgN/A
1:55 PM41 °FOvercast.10 mph76%28.97 "HgN/A
1:25 PM41 °FScattered clouds.8 mph81%28.97 "HgN/A
12:55 PM39 °FPartly sunny.8 mph81%28.97 "HgN/A
12:25 PM39 °FCloudy.10 mph87%28.97 "HgN/A
11:55 AM39 °FPassing clouds.9 mph87%28.97 "HgN/A
11:25 AM39 °FScattered clouds.7 mph87%28.94 "HgN/A
10:55 AM39 °FPartly sunny.8 mph81%28.94 "HgN/A
10:25 AM36 °FPartly sunny.5 mph93%28.94 "HgN/A
9:55 AM34 °FSprinkles. Broken clouds.3 mph93%28.94 "HgN/A
9:25 AM36 °FCloudy.6 mph87%28.91 "HgN/A
Weather by CustomWeather, © 2014

See weather overviewHow to use our weather pages